Home   Weather   Garden Grove   Past weeks

Flag for USA Past Weather in Garden Grove, California, USA — Yesterday and Last 2 Weeks

Now
73 °F

Clear.


Feels Like: 77 °F
Forecast: 70 / 97 °F
Wind: No wind

Location: Fullerton Municipal Airport

Current Time: Sep 26, 2016 at 12:18:30 AM

Latest Report: Sep 25, 2016 at 11:53 PM


Visibility: 10 mi

Pressure: 29.92 "Hg

Humidity: 34%

Dew Point: 43 °F

Location of Garden GroveLocation

Past Weather in Garden Grove — Graph

°F

Garden Grove Temperature Yesterday

Maximum temperature yesterday: 101 °F (at 2:53 PM)
Minimum temperature yesterday: 61 °F (at 6:53 AM)
Average temperature yesterday: 80 °F

High & Low Weather Summary for the Past Weeks

 TemperatureHumidityPressure
High101 °F (Sep 25, 2:53 PM)94% (Sep 19, 5:00 AM)30.07 "Hg (Sep 19, 5:00 AM)
Low58 °F (Sep 15, 6:53 AM)6% (Sep 25, 2:53 PM)29.80 "Hg (Sep 21, 4:53 PM)
Average72 °F58%29.93 "Hg
* Reported Sep 10 10:53 PM — Sep 25 10:53 PM, Garden Grove, Weather by CustomWeather, © 2016

Note: Actual official high and low records may vary slightly from our data, if they occured in-between our weather recording intervals... More about our weather records

Advertising

Garden Grove Weather History for the Previous 24 Hours

Scroll right to see more
 ConditionsComfort  
Time TempWeatherWind HumidityBarometerVisibility
10:53 PM
Sun, Sep 25
77 °FClear.3 mph29%29.92 "Hg10 mi
9:53 PM77 °FClear.No wind28%29.92 "Hg10 mi
8:53 PM80 °FClear.No wind24%29.90 "Hg10 mi
7:53 PM84 °FClear.No wind19%29.89 "Hg10 mi
6:53 PM87 °FClear.3 mph17%29.87 "Hg10 mi
5:53 PM92 °FSunny.8 mph14%29.85 "Hg10 mi
4:53 PM96 °FSunny.9 mph10%29.85 "Hg10 mi
3:53 PM99 °FSunny.12 mph8%29.86 "Hg10 mi
2:53 PM101 °FSunny.5 mph6%29.88 "Hg10 mi
1:53 PM100 °FSunny.3 mph7%29.90 "Hg10 mi
12:53 PM98 °FSunny.6 mph10%29.93 "Hg10 mi
11:53 AM93 °FSunny.No wind14%29.96 "Hg10 mi
10:53 AM87 °FPassing clouds.No wind20%29.99 "Hg10 mi
9:53 AM81 °FSunny.No wind25%29.99 "Hg10 mi
8:53 AM74 °FSunny.No wind32%30.00 "Hg10 mi
7:53 AM66 °FSunny.No wind45%30.00 "Hg10 mi
6:53 AM61 °FSunny.No wind58%29.98 "Hg10 mi
5:53 AM62 °FClear.No wind56%29.96 "Hg10 mi
4:53 AM63 °FClear.No wind48%29.96 "Hg10 mi
3:53 AM64 °FClear.3 mph45%29.95 "Hg10 mi
2:53 AM64 °FClear.No wind52%29.96 "Hg10 mi
1:53 AM65 °FClear.3 mph49%29.96 "Hg10 mi
12:53 AM67 °FClear.No wind42%29.96 "Hg10 mi
Weather by CustomWeather, © 2016

See weather overviewHow to use our weather pages